Flag for Switzerland Weather past 2 weeks in Kloten, Zurich, Switzerland

Now
37 °F

Light rain. Broken clouds.


Feels Like: 31 °F
Forecast: 25 / 39 °F
Wind: 8 mph from Southwest

Location: Zurich-Kloten

Current Time: Feb 27, 2015 at 2:30:35 PM

Latest Report: Feb 27, 2015 at 1:50 PM


Visibility: 6 mi

Pressure: 29.89 "Hg

Humidity: 93%

Dew point: 36 °F

Location of KlotenLocation

Historic Weather in Kloten — Graph

°F

Kloten temperature yesterday

Maximum temperature yesterday: 45 °F (at 1:50 PM)
Minimum temperature yesterday: 23 °F (at 5:50 AM)
Average temperature yesterday: 34 °F

Past Weeks' High & Low Weather Summary

 TemperatureHumidityPressure
High52 °F (Feb 20, 1:50 PM)100% (Feb 12, 2:50 PM)30.69 "Hg (Feb 12, 2:50 PM)
Low23 °F (Feb 13, 7:50 AM)35% (Feb 20, 3:20 PM)29.53 "Hg (Feb 21, 10:50 AM)
Average33 °F86%30.03 "Hg
* Reported Feb 12 1:20 PM — Feb 27 1:20 PM, Kloten, Weather by CustomWeather, © 2015

Note: Actual official high and low records may vary slightly from our data, if they occured in-between our weather recording intervals... More about our weather records

Advertising

Kloten weather history for previous 24 hours

 ConditionsComfort  
Time TempWeatherWind HumidityBarometerVisibility
1:20 PM
Fri, Feb 27
37 °FLight rain. Broken clouds.6 mph93%29.89 "HgN/A
12:50 PM37 °FLight rain. Partly sunny.3 mph93%29.89 "Hg6 mi
12:20 PM37 °FScattered showers. Broken clouds.5 mph87%29.89 "HgN/A
11:50 AM36 °FLight rain. Partly sunny.6 mph93%29.86 "HgN/A
11:20 AM36 °FLight rain. Broken clouds.5 mph93%29.86 "HgN/A
10:50 AM36 °FLight rain. Broken clouds.7 mph93%29.86 "Hg5 mi
10:20 AM34 °FLight snow. Broken clouds.9 mph93%29.83 "Hg3 mi
9:50 AM34 °FLight snow. Broken clouds.10 mph100%29.83 "Hg2 mi
9:20 AM34 °FLight snow. More clouds than sun.10 mph93%29.83 "Hg2 mi
8:50 AM32 °FLight snow. More clouds than sun.10 mph100%29.83 "Hg2 mi
8:20 AM32 °FSnow. Dense fog.9 mph100%29.83 "Hg1 mi
7:50 AM32 °FSnow. Dense fog.6 mph100%29.83 "Hg1 mi
7:20 AM32 °FLight snow. More clouds than sun.1 mph93%29.83 "Hg2 mi
6:50 AM34 °FLight snow. Mostly cloudy.5 mph87%29.83 "HgN/A
6:20 AM34 °FLight snow. Overcast.3 mph87%29.80 "HgN/A
5:50 AM34 °FScattered showers. Overcast.5 mph75%29.80 "HgN/A
5:20 AM34 °FOvercast.2 mph75%29.80 "HgN/A
4:20 AM34 °FOvercast.6 mph75%29.83 "HgN/A
3:50 AM34 °FLight snow. Passing clouds.3 mph81%29.83 "HgN/A
3:20 AM34 °FLight snow. Passing clouds.2 mph81%29.86 "HgN/A
2:50 AM34 °FPassing clouds.No wind81%29.86 "HgN/A
2:20 AM34 °FPartly cloudy.2 mph70%29.89 "HgN/A
1:50 AM34 °FPartly cloudy.2 mph75%29.89 "HgN/A
12:50 AM32 °FClear.1 mph87%29.92 "Hg10 mi
12:20 AM32 °FClear.2 mph87%29.92 "Hg10 mi
11:50 PM
Thu, Feb 26
32 °FClear.No wind87%29.92 "Hg10 mi
11:20 PM34 °FClear.2 mph81%29.95 "Hg10 mi
10:50 PM32 °FClear.1 mph80%29.95 "Hg10 mi
10:20 PM32 °FClear.1 mph80%29.95 "Hg10 mi
9:50 PM32 °FClear.1 mph80%29.98 "Hg10 mi
9:20 PM30 °FClear.1 mph86%29.98 "Hg10 mi
8:50 PM32 °FClear.No wind87%29.98 "Hg10 mi
8:20 PM34 °FClear.1 mph70%30.01 "Hg10 mi
7:50 PM36 °FClear.2 mph75%30.01 "Hg10 mi
7:20 PM36 °FClear.2 mph75%30.01 "Hg10 mi
6:50 PM41 °FClear.2 mph57%30.01 "Hg10 mi
6:20 PM41 °FClear.3 mph57%30.01 "Hg10 mi
5:50 PM43 °FPassing clouds.3 mph57%30.01 "HgN/A
5:20 PM45 °FSunny.5 mph53%30.01 "Hg10 mi
4:50 PM45 °FPassing clouds.3 mph49%30.04 "HgN/A
4:20 PM45 °FPassing clouds.3 mph53%30.04 "HgN/A
3:50 PM45 °FPassing clouds.5 mph53%30.04 "HgN/A
3:20 PM45 °FPassing clouds.6 mph49%30.04 "HgN/A
2:50 PM45 °FPassing clouds.7 mph53%30.07 "HgN/A
2:20 PM45 °FPassing clouds.8 mph57%30.07 "HgN/A
Weather by CustomWeather, © 2015

See weather overviewHow to use our weather pages